Tracking 32964 objects as of 20-Jan-2026
HD Live streaming from Space Station
objects crossing your sky now

JILIN-01 GAOFEN 3J

Track JILIN-01 GAOFEN 3J now!
10-day predictions


NORAD ID: 46462
Int'l Code: 2020-065J
Perigee: 380.2 km
Apogee: 383.5 km
Inclination: 97.3 °
Period: 92.0 minutes
Semi major axis: 6752 km
RCS: Unknown
Launch date: September 15, 2020
Source: People's Republic of China (PRC)
Launch site: Yellow Sea Launch Area, China (YSLA)
Your satellite tracking list
Your tracking list is empty




NASA's NSSDC Master Catalog

Two Line Element Set (TLE):
1 46462U 20065J   26020.29640926  .00114815  00000-0  11822-2 0  9999
2 46462  97.2509  75.4723 0002427 305.1689  54.9343 15.64474978297080
Source of the keplerian elements: AFSPC